THORAD DELTA 1 DEB, 9984

Orbit data source: Space-Track

THORAD DELTA 1 DEB, 9984 is space debris in SSO originally from a launch on Fri, 15 Nov 1974 UTC launched from the Air Force Western Test Range (AFWTR). Debris objects in space refer to the collection of defunct objects orbiting the Earth. Examples of debris include non-operational satellites, rocket bodies, and fragments generated from explosions, collisions, or faulty payload assembly.

Loading next visibility...
Identifier
9984, 1974-089EB
Orbit
SSO
Country
Flag of USUS
Related business
Manufacturer
Unknown
Mission
Spacecraft
Bus & Motor
Unknown
Mass
Unknown
Launch date (UTC)
1974-11-15 (51 years ago)
Launch vehicle
Unknown
Launch site
Air Force Western Test Range (AFWTR)
Object type
Payload
Rocket body
Debris
Shape & HBR
Unknown shape, 0.1 m
Radar Cross Section
Small (<0.1 m²)

Expand to show TLE details & history
Last TLE update: 16 hours ago

TLE from 16 hours ago
0 THORAD DELTA 1 DEB
1 09984U 74089EB  26048.43921339 -.00000030  00000-0  12438-3 0  9997
2 09984 102.3324  44.2130 0095110  12.2207 146.3106 12.40454935322455
Epoch: 2026-02-17T10:32Z
TLE epoch observation values (Epoch: 2026-02-17T10:32:28.036Z)
Latitude
20.37385°
Longitude
-76.68846°
Altitude
1,569.47 km
Speed
7.057 km/s
True Right ascension
15h 15m 23s
True Declination
20° 16' 24"
Sunlit
Object was in daylight at epoch
Visualization orbit readout
Latitude
Unknown
Longitude
Unknown
Altitude
Unknown
Speed
Unknown
Apparent Right ascension
Unknown
Apparent Declination
Unknown
Sunlit
N/A
Visualization observer readout
Local Sidereal Time
05:23:10
Azimuth
Unknown
Elevation
Unknown
Doppler factor
Unknown
Orbital elements
Apogee altitude
1,577.22 km
Perigee altitude
1,427.319 km
Semi-major axis
7,880.406 km
Eccentricity
0.00951
Inclination
102.3324°
RAAN
44.213°
Arg. of periapsis
12.2207°
True anomaly
146.90921°
Mean anomaly
146.3106°
Eccentric anomaly
146.6105°
Mean motion
3.10256 °/min
Orbital period
116.03 mins
BSTAR
0.00012438
Loading maneuver chart data...
Computing Atmospheric mass density...
Loading historical data...
Loading historical data...
Loading historical data...
Loading historical data...
Loading historical data...
Loading historical data...
Loading historical data...

Documentation

Showing up to 5 results
|